Location: Berua Church
(35.0423°N, 88.5987°W)
Time: 23:09:31
(UTC+00:00)

YAOGAN 6 - Pass Details

Date: 08 December 2019
Orbit: 466 x 505 km, 97.0° (Epoch: 24 January)

Event Time Altitude Azimuth Distance (km) Brightness Sun altitude
Rises 23:09:02 0° 126° (SE) 2,502 5.9 -5.7°
Reaches altitude 10° 23:11:58 10° 98° (E) 1,638 4.7 -6.3°
Maximum altitude 23:13:39 13° 69° (ENE) 1,464 4.3 -6.6°
Drops below altitude 10° 23:15:21 10° 40° (NE) 1,653 4.7 -6.9°
Sets 23:18:20 0° 13° (NNE) 2,547 5.9 -7.5°
